• In Hungary
  • List of Countries
  • For 7 days
  • Water Temperature
  • Satellite Maps
  • Weather Map
  • News
  • Weather Widgets
  • user-avatar
    Login

    Hourly Weather Yangishahar

    Today, 19 October, Friday

    Time Temperature Precipitation Wind Pressure Humidity
    00:00 +6°C° 0 mm 1 mps 704 mmHg 39%
    01:00 +6°C° 0 mm 1 mps 703 mmHg 39%
    02:00 +6°C° 0 mm 1 mps 703 mmHg 40%
    03:00 +6°C° 0 mm 1 mps 704 mmHg 40%
    04:00 +6°C° 0 mm 1 mps 704 mmHg 40%
    05:00 +6°C° 0 mm 1 mps 704 mmHg 41%
    06:00 +7°C° 0 mm 1 mps 704 mmHg 40%
    07:00 +7°C° 0 mm 1 mps 704 mmHg 40%
    08:00 +8°C° 0 mm 1 mps 705 mmHg 40%
    09:00 +9°C° 0 mm 1 mps 704 mmHg 37%
    10:00 +10°C° 0 mm 1 mps 704 mmHg 34%
    11:00 +12°C° 0 mm 1 mps 704 mmHg 31%
    12:00 +12°C° 0 mm 2 mps 704 mmHg 31%
    13:00 +13°C° 0 mm 2 mps 704 mmHg 30%
    14:00 +13°C° 0 mm 2 mps 704 mmHg 30%
    15:00 +12°C° 0 mm 2 mps 705 mmHg 33%
    16:00 +12°C° 0 mm 2 mps 705 mmHg 36%
    17:00 +10°C° 0 mm 2 mps 705 mmHg 38%
    18:00 +9°C° 0 mm 2 mps 706 mmHg 39%
    19:00 +8°C° 0 mm 2 mps 706 mmHg 40%
    20:00 +8°C° 0 mm 2 mps 706 mmHg 41%
    21:00 +8°C° 0 mm 2 mps 706 mmHg 41%
    22:00 +7°C° 0 mm 2 mps 706 mmHg 41%
    23:00 +7°C° 0 mm 2 mps 706 mmHg 42%

    Tomorrow, 20 October, Saturday

    Time Temperature Precipitation Wind Pressure Humidity
    00:00 +7°C° 0 mm 2 mps 706 mmHg 41%
    01:00 +7°C° 0 mm 2 mps 706 mmHg 41%
    02:00 +7°C° 0 mm 2 mps 706 mmHg 41%
    03:00 +7°C° 0 mm 2 mps 706 mmHg 42%
    04:00 +7°C° 0 mm 2 mps 706 mmHg 42%
    05:00 +6°C° 0 mm 2 mps 706 mmHg 42%
    06:00 +8°C° 0 mm 1 mps 706 mmHg 41%
    07:00 +9°C° 0 mm 1 mps 706 mmHg 41%
    08:00 +10°C° 0 mm 1 mps 706 mmHg 40%
    09:00 +11°C° 0 mm 1 mps 706 mmHg 37%
    10:00 +12°C° 0 mm 1 mps 706 mmHg 34%
    11:00 +13°C° 0 mm 1 mps 706 mmHg 30%
    12:00 +14°C° 0 mm 1 mps 706 mmHg 30%
    13:00 +15°C° 0 mm 1 mps 706 mmHg 29%
    14:00 +15°C° 0 mm 1 mps 706 mmHg 29%
    15:00 +15°C° 0 mm 1 mps 706 mmHg 32%
    16:00 +14°C° 0 mm 1 mps 706 mmHg 34%
    17:00 +12°C° 0 mm 0 mps 706 mmHg 37%
    18:00 +13°C° 0 mm 1 mps 706 mmHg 38%
    19:00 +12°C° 0 mm 1 mps 706 mmHg 39%
    20:00 +10°C° 0 mm 2 mps 706 mmHg 40%
    21:00 +10°C° 0 mm 2 mps 706 mmHg 41%
    22:00 +10°C° 0 mm 2 mps 706 mmHg 41%
    23:00 +9°C° 0 mm 2 mps 706 mmHg 42%

    Day after tomorrow, 21 October, Sunday

    Time Temperature Precipitation Wind Pressure Humidity
    00:00 +9°C° 0 mm 2 mps 706 mmHg 42%
    01:00 +9°C° 0 mm 2 mps 706 mmHg 42%
    02:00 +9°C° 0 mm 2 mps 706 mmHg 43%
    03:00 +9°C° 0 mm 2 mps 705 mmHg 42%
    04:00 +8°C° 0 mm 2 mps 705 mmHg 42%
    05:00 +8°C° 0 mm 2 mps 705 mmHg 42%
    06:00 +9°C° 0 mm 2 mps 706 mmHg 41%
    07:00 +10°C° 0 mm 2 mps 706 mmHg 40%
    08:00 +12°C° 0 mm 2 mps 706 mmHg 39%
    09:00 +13°C° 0 mm 2 mps 706 mmHg 35%
    10:00 +15°C° 0 mm 1 mps 705 mmHg 31%
    11:00 +18°C° 0 mm 1 mps 705 mmHg 27%
    12:00 +19°C° 0 mm 1 mps 705 mmHg 25%
    13:00 +20°C° 0 mm 1 mps 705 mmHg 24%
    14:00 +21°C° 0 mm 1 mps 705 mmHg 23%
    15:00 +20°C° 0 mm 1 mps 705 mmHg 26%
    16:00 +19°C° 0 mm 1 mps 705 mmHg 29%
    17:00 +18°C° 0 mm 1 mps 704 mmHg 31%
    18:00 +16°C° 0 mm 1 mps 705 mmHg 32%
    19:00 +15°C° 0 mm 1 mps 705 mmHg 33%
    20:00 +14°C° 0 mm 2 mps 705 mmHg 34%
    21:00 +14°C° 0 mm 2 mps 705 mmHg 34%
    22:00 +13°C° 0 mm 2 mps 705 mmHg 35%
    23:00 +13°C° 0 mm 2 mps 705 mmHg 35%

    22 October, Monday

    Time Temperature Precipitation Wind Pressure Humidity
    00:00 +12°C° 0 mm 2 mps 704 mmHg 35%
    01:00 +12°C° 0 mm 2 mps 704 mmHg 35%
    02:00 +12°C° 0 mm 2 mps 704 mmHg 35%
    03:00 +12°C° 0 mm 2 mps 703 mmHg 35%
    04:00 +10°C° 0 mm 2 mps 703 mmHg 35%
    05:00 +10°C° 0 mm 2 mps 703 mmHg 34%
    06:00 +12°C° 0 mm 2 mps 703 mmHg 34%
    07:00 +12°C° 0 mm 2 mps 703 mmHg 33%
    08:00 +13°C° 0 mm 2 mps 703 mmHg 32%
    09:00 +15°C° 0 mm 1 mps 703 mmHg 29%
    10:00 +18°C° 0 mm 1 mps 703 mmHg 25%
    11:00 +20°C° 0 mm 1 mps 703 mmHg 21%
    12:00 +20°C° 0 mm 1 mps 703 mmHg 21%
    13:00 +21°C° 0 mm 1 mps 703 mmHg 20%
    14:00 +22°C° 0 mm 1 mps 702 mmHg 19%
    15:00 +21°C° 0 mm 1 mps 702 mmHg 22%
    16:00 +20°C° 0 mm 1 mps 702 mmHg 25%
    17:00 +19°C° 0 mm 1 mps 702 mmHg 28%
    18:00 +18°C° 0 mm 1 mps 702 mmHg 29%
    19:00 +16°C° 0 mm 1 mps 702 mmHg 30%
    20:00 +15°C° 0 mm 1 mps 702 mmHg 30%
    21:00 +14°C° 0 mm 1 mps 702 mmHg 30%
    22:00 +14°C° 0 mm 2 mps 702 mmHg 31%
    23:00 +13°C° 0 mm 2 mps 702 mmHg 31%

    23 October, Tuesday

    Time Temperature Precipitation Wind Pressure Humidity
    00:00 +13°C° 0 mm 2 mps 702 mmHg 31%
    01:00 +13°C° 0 mm 2 mps 702 mmHg 31%
    02:00 +12°C° 0 mm 2 mps 701 mmHg 32%
    03:00 +12°C° 0 mm 2 mps 701 mmHg 31%
    04:00 +12°C° 0 mm 2 mps 701 mmHg 31%
    05:00 +10°C° 0 mm 2 mps 701 mmHg 31%
    06:00 +12°C° 0 mm 2 mps 702 mmHg 30%
    07:00 +13°C° 0 mm 2 mps 702 mmHg 30%
    08:00 +13°C° 0 mm 2 mps 702 mmHg 29%
    09:00 +15°C° 0 mm 2 mps 702 mmHg 26%
    10:00 +18°C° 0 mm 1 mps 702 mmHg 23%
    11:00 +19°C° 0 mm 1 mps 702 mmHg 20%
    12:00 +20°C° 0 mm 1 mps 702 mmHg 20%
    13:00 +21°C° 0 mm 1 mps 702 mmHg 19%
    14:00 +21°C° 0 mm 1 mps 701 mmHg 19%
    15:00 +20°C° 0 mm 1 mps 701 mmHg 22%
    16:00 +19°C° 0 mm 1 mps 701 mmHg 25%
    17:00 +18°C° 0 mm 1 mps 702 mmHg 27%
    18:00 +16°C° 0 mm 1 mps 702 mmHg 28%
    19:00 +16°C° 0 mm 1 mps 702 mmHg 29%
    20:00 +15°C° 0 mm 1 mps 702 mmHg 30%
    21:00 +14°C° 0 mm 2 mps 702 mmHg 30%
    22:00 +14°C° 0 mm 2 mps 702 mmHg 30%
    23:00 +14°C° 0 mm 2 mps 702 mmHg 31%

    24 October, Wednesday

    Time Temperature Precipitation Wind Pressure Humidity
    00:00 +13°C° 0 mm 2 mps 702 mmHg 31%
    01:00 +13°C° 0 mm 2 mps 702 mmHg 31%
    02:00 +13°C° 0 mm 2 mps 702 mmHg 31%
    03:00 +12°C° 0 mm 2 mps 702 mmHg 31%
    04:00 +12°C° 0 mm 2 mps 702 mmHg 30%
    05:00 +12°C° 0 mm 2 mps 702 mmHg 30%
    06:00 +12°C° 0 mm 2 mps 702 mmHg 29%
    07:00 +13°C° 0 mm 2 mps 702 mmHg 29%
    08:00 +14°C° 0 mm 2 mps 702 mmHg 28%
    09:00 +15°C° 0 mm 2 mps 702 mmHg 25%
    10:00 +17°C° 0 mm 2 mps 702 mmHg 22%
    11:00 +19°C° 0 mm 2 mps 703 mmHg 18%
    12:00 +20°C° 0 mm 2 mps 702 mmHg 18%
    13:00 +21°C° 0 mm 1 mps 702 mmHg 17%
    14:00 +22°C° 0 mm 1 mps 702 mmHg 17%
    15:00 +21°C° 0 mm 1 mps 702 mmHg 20%
    16:00 +20°C° 0 mm 1 mps 702 mmHg 23%
    17:00 +17°C° 0 mm 0 mps 702 mmHg 25%
    18:00 +18°C° 0 mm 1 mps 702 mmHg 26%
    19:00 +16°C° 0 mm 1 mps 702 mmHg 26%
    20:00 +16°C° 0 mm 2 mps 702 mmHg 27%
    21:00 +15°C° 0 mm 2 mps 702 mmHg 27%
    22:00 +15°C° 0 mm 2 mps 702 mmHg 28%
    23:00 +14°C° 0 mm 2 mps 701 mmHg 28%
    Show more